TimeCDT,TemperatureF,Dew PointF,Humidity,Sea Level PressureIn,VisibilityMPH,Wind Direction,Wind SpeedMPH,Gust SpeedMPH,PrecipitationIn,Events,Conditions,WindDirDegrees,DateUTC
12:54 AM,37.0,30.9,79,30.37,10.0,NNE,13.8,23.0,N/A,,Overcast,30,2013-05-02 05:54:00
1:54 AM,37.0,30.9,79,30.38,10.0,North,11.5,21.9,N/A,,Overcast,10,2013-05-02 06:54:00
2:54 AM,37.0,30.9,79,30.36,10.0,North,13.8,20.7,N/A,,Overcast,10,2013-05-02 07:54:00
3:54 AM,37.0,30.9,79,30.36,10.0,North,12.7,20.7,N/A,,Overcast,10,2013-05-02 08:54:00
4:54 AM,37.0,30.9,79,30.35,10.0,North,13.8,23.0,N/A,,Overcast,10,2013-05-02 09:54:00
5:54 AM,36.0,30.9,82,30.38,10.0,North,13.8,18.4,N/A,,Overcast,10,2013-05-02 10:54:00
6:54 AM,36.0,30.0,79,30.39,10.0,North,11.5,-,N/A,,Overcast,360,2013-05-02 11:54:00
7:54 AM,35.1,30.9,85,30.38,10.0,North,13.8,23.0,0.01,,Overcast,360,2013-05-02 12:54:00
8:01 AM,35.6,30.2,81,30.34,10.0,North,13.8,23.0,0.00,,Overcast,10,2013-05-02 13:01:00
8:54 AM,35.1,30.9,85,30.42,10.0,North,13.8,20.7,0.00,,Overcast,10,2013-05-02 13:54:00
9:23 AM,35.6,32.0,87,30.36,2.5,North,12.7,-,0.00,Snow,Light Snow,10,2013-05-02 14:23:00
9:36 AM,33.8,32.0,93,30.32,3.0,NNE,16.1,-,0.00,,Overcast,20,2013-05-02 14:36:00
9:54 AM,34.0,32.0,92,30.41,4.0,North,13.8,23.0,0.04,Rain,Heavy Rain,360,2013-05-02 14:54:00
10:21 AM,33.8,32.0,93,30.35,2.5,NNE,15.0,20.7,0.05,Rain,Rain,20,2013-05-02 15:21:00
10:33 AM,35.6,33.8,93,30.37,3.0,NNE,9.2,20.7,0.07,Rain,Light Rain,20,2013-05-02 15:33:00
10:52 AM,35.6,33.8,93,30.36,7.0,North,9.2,-,0.07,Rain,Light Rain,360,2013-05-02 15:52:00
10:54 AM,35.1,33.1,92,30.42,7.0,North,6.9,-,0.07,Rain,Light Rain,360,2013-05-02 15:54:00
11:54 AM,36.0,33.1,89,30.40,10.0,NNE,17.3,23.0,0.00,,Overcast,20,2013-05-02 16:54:00
12:54 PM,36.0,32.0,86,30.40,10.0,NNE,13.8,24.2,N/A,,Overcast,20,2013-05-02 17:54:00
1:54 PM,36.0,30.0,79,30.40,10.0,North,15.0,21.9,N/A,,Overcast,10,2013-05-02 18:54:00
2:04 PM,35.6,30.2,81,30.33,10.0,North,18.4,23.0,N/A,,Overcast,10,2013-05-02 19:04:00
2:54 PM,35.1,28.9,78,30.40,10.0,North,12.7,27.6,N/A,,Overcast,10,2013-05-02 19:54:00
3:54 PM,34.0,30.0,85,30.40,10.0,North,12.7,24.2,0.01,,Overcast,10,2013-05-02 20:54:00
4:54 PM,34.0,28.9,82,30.39,10.0,NNE,11.5,20.7,N/A,,Overcast,20,2013-05-02 21:54:00
5:54 PM,33.1,28.9,85,30.39,10.0,North,13.8,20.7,0.03,,Overcast,350,2013-05-02 22:54:00
6:07 PM,32.0,28.4,87,30.34,10.0,North,10.4,19.6,0.00,,Overcast,350,2013-05-02 23:07:00
6:27 PM,32.0,28.4,87,30.33,7.0,North,16.1,26.5,0.01,Snow,Light Snow,350,2013-05-02 23:27:00
6:40 PM,32.0,28.4,87,30.33,3.0,North,12.7,23.0,0.03,,Overcast,10,2013-05-02 23:40:00
6:54 PM,32.0,28.0,85,30.37,8.0,North,16.1,21.9,0.03,,Overcast,360,2013-05-02 23:54:00
7:32 PM,32.0,28.4,87,30.33,8.0,North,12.7,19.6,0.00,,Overcast,10,2013-05-03 00:32:00
7:54 PM,32.0,28.0,85,30.38,9.0,NNE,15.0,25.3,0.00,,Overcast,20,2013-05-03 00:54:00
8:54 PM,30.9,28.0,89,30.38,10.0,North,9.2,-,N/A,,Overcast,10,2013-05-03 01:54:00
9:54 PM,30.9,27.0,85,30.38,10.0,North,12.7,-,0.00,,Overcast,360,2013-05-03 02:54:00
10:54 PM,30.9,27.0,85,30.36,10.0,North,11.5,-,N/A,,Overcast,10,2013-05-03 03:54:00
11:54 PM,30.9,27.0,85,30.34,10.0,North,10.4,-,0.00,,Overcast,10,2013-05-03 04:54:00